TITAN 3C TRANSTAGE DEB, 28836

Orbit data source: Space-Track

TITAN 3C TRANSTAGE DEB, 28836 is space debris in HEO originally from a launch on Tue, 21 Dec 1965 UTC launched from the Air Force Eastern Test Range (AFETR). Debris objects in space refer to the collection of defunct objects orbiting the Earth. Examples of debris include non-operational satellites, rocket bodies, and fragments generated from explosions, collisions, or faulty payload assembly.

Loading next visibility...
Identifier
28836, 1965-108CN
Orbit
HEO
Country
Flag of USUS
Related business
Manufacturer
Unknown
Mission
Spacecraft
Bus & Motor
Unknown
Mass
Unknown
Launch date (UTC)
1965-12-21 (61 years ago)
Launch vehicle
Unknown
Launch site
Air Force Eastern Test Range (AFETR)
Object type
Payload
Rocket body
Debris
Shape & HBR
Unknown shape, 0.1 m
Radar Cross Section
Medium (>0.1 m² and <1 m²)

Expand to show TLE details & history
Last TLE update: 2 months ago

TLE from 2 months ago
0 TITAN 3C TRANSTAGE DEB
1 28836U 65108CN  26108.85589171  .00000022  00000-0  65673-3 0  9992
2 28836  26.9590 315.9641 6825202 162.3238 353.1304  2.67582655211187
Epoch: 2026-04-18T20:32Z
TLE epoch observation values (Epoch: 2026-04-18T20:32:29.043Z)
Latitude
23.93087°
Longitude
-79.44667°
Altitude
1,559.743 km
Speed
9.071 km/s
True Right ascension
05h 02m 34s
True Declination
23° 48' 59"
Sunlit
Object was in daylight at epoch
Visualization orbit readout
Latitude
Unknown
Longitude
Unknown
Altitude
Unknown
Speed
Unknown
Apparent Right ascension
Unknown
Apparent Declination
Unknown
Sunlit
N/A
Visualization observer readout
Local Sidereal Time
05:39:08
Azimuth
Unknown
Elevation
Unknown
Doppler factor
Unknown
Orbital elements
Apogee altitude
30,502.152 km
Perigee altitude
580.916 km
Semi-major axis
21,919.671 km
Eccentricity
0.68252
Inclination
26.959°
RAAN
315.9641°
Arg. of periapsis
162.3238°
True anomaly
314.43511°
Mean anomaly
353.1304°
Eccentric anomaly
339.32097°
Mean motion
0.66879 °/min
Orbital period
538.28 mins
BSTAR
0.00065673
Loading maneuver chart data...
Computing Atmospheric mass density...

Documentation

Showing up to 5 results
|